K7ZQU-7 Weather Reports


Display with metric or nautical units.
time (UTC)temp
F
wind
direction
speed
MPH
gust
MPH
rain 1hr
in
rain 24hr
in
rain mn
in
humidity
%
barometer
mb
20260906191433 44 238 1.0 1.0 0.00 0.57 0.55 93 1014.0
20260906190934 43 281 2.0 5.0 0.00 0.57 0.55 94 1014.0
20260906190432 43 240 3.0 2.0 0.00 0.57 0.55 95 1014.0
20260906185933 43 277 0.0 0.0 0.00 0.57 0.55 96 1014.0
20260906185434 42 277 1.0 0.0 0.00 0.57 0.55 96 1014.0
20260906184935 42 245 0.0 0.0 0.00 0.57 0.55 95 1014.0
20260906184436 42 260 2.0 1.0 0.00 0.57 0.55 96 1014.0
20260906183934 42 225 2.0 0.0 0.00 0.57 0.55 96 1014.0
20260906183435 42 294 3.0 7.0 0.00 0.57 0.55 96 1014.0
20260906182936 41 260 0.0 1.0 0.00 0.57 0.55 96 1014.0
20260906182437 41 287 0.0 0.0 0.00 0.57 0.55 96 1014.0
20260906181938 41 253 0.0 0.0 0.00 0.57 0.55 96 1014.1
20260906181436 41 240 0.0 0.0 0.00 0.57 0.55 96 1014.0
20260906180937 41 240 0.0 0.0 0.00 0.57 0.55 96 1014.0
20260906180438 41 240 0.0 0.0 0.00 0.57 0.55 96 1014.0
20260906175939 41 240 0.0 0.0 0.00 0.57 0.55 96 1014.0
20260906175440 41 240 1.0 1.0 0.00 0.57 0.55 96 1014.0
20260906174938 41 283 0.0 0.0 0.00 0.57 0.55 96 1013.9
20260906174439 41 205 0.0 0.0 0.00 0.57 0.55 96 1013.9
20260906173940 41 278 0.0 0.0 0.00 0.57 0.55 96 1013.8
20260906173441 41 269 0.0 0.0 0.00 0.57 0.55 96 1013.8
20260906172942 41 269 0.0 0.0 0.00 0.57 0.55 96 1013.8
20260906172440 41 222 0.0 0.0 0.00 0.57 0.55 96 1013.7
20260906171941 40 179 0.0 0.0 0.00 0.57 0.55 96 1013.7
20260906171442 41 179 2.0 0.0 0.00 0.57 0.55 96 1013.7
20260906170943 41 271 0.0 0.0 0.00 0.57 0.55 96 1013.7
20260906170444 41 250 1.0 3.0 0.00 0.57 0.55 96 1013.7
20260906165942 41 259 0.0 0.0 0.00 0.57 0.55 96 1013.5
20260906165443 41 245 0.0 0.0 0.00 0.57 0.55 96 1013.5
20260906164944 41 243 0.0 0.0 0.00 0.57 0.55 96 1013.5
20260906164445 41 260 0.0 0.0 0.00 0.57 0.55 96 1013.4
20260906163946 41 260 1.0 0.0 0.00 0.57 0.55 96 1013.4
20260906163444 41 242 2.0 4.0 0.00 0.57 0.55 96 1013.4
20260906162945 41 311 0.0 4.0 0.00 0.57 0.55 96 1013.4
20260906162446 41 239 2.0 1.0 0.00 0.57 0.55 96 1013.5
20260906161947 41 314 2.0 0.0 0.00 0.57 0.55 96 1013.5
20260906161448 41 269 0.0 0.0 0.00 0.57 0.55 96 1013.4
20260906160946 41 288 1.0 1.0 0.00 0.57 0.55 96 1013.4
20260906160447 41 287 0.0 0.0 0.00 0.57 0.55 96 1013.4
20260906155948 40 276 0.0 3.0 0.00 0.57 0.55 96 1013.4
20260906155449 41 290 0.0 0.0 0.00 0.57 0.55 96 1013.4
20260906154950 41 249 0.0 0.0 0.00 0.57 0.55 96 1013.4
20260906154448 40 280 0.0 0.0 0.00 0.57 0.55 96 1013.4
20260906153949 41 252 2.0 0.0 0.00 0.57 0.55 97 1013.4
20260906153450 40 242 0.0 0.0 0.00 0.57 0.55 97 1013.3
20260906152951 40 207 0.0 0.0 0.00 0.57 0.55 97 1013.3
20260906152452 40 207 0.0 0.0 0.00 0.57 0.55 97 1013.2
20260906151950 40 207 0.0 0.0 0.00 0.57 0.55 97 1013.2
20260906151451 40 207 0.0 0.0 0.00 0.57 0.55 97 1013.2
20260906150952 40 212 0.0 0.0 0.00 0.57 0.55 97 1013.2
20260906150453 39 283 0.0 0.0 0.00 0.57 0.55 97 1013.1
20260906145954 39 204 0.0 0.0 0.00 0.57 0.55 97 1013.1
20260906145452 39 204 0.0 0.0 0.00 0.57 0.55 97 1013.1
20260906144953 39 204 0.0 0.0 0.00 0.57 0.55 97 1013.0
20260906144454 39 204 0.0 0.0 0.00 0.57 0.55 97 1013.0
20260906143955 38 204 0.0 0.0 0.00 0.57 0.55 97 1013.0
20260906143455 38 204 0.0 0.0 0.00 0.57 0.55 97 1012.8
20260906142954 38 204 0.0 0.0 0.00 0.57 0.55 97 1012.8
20260906142454 38 204 0.0 0.0 0.00 0.57 0.55 97 1012.7
20260906141955 38 204 0.0 0.0 0.00 0.57 0.55 97 1012.7
20260906141456 38 204 0.0 0.0 0.00 0.57 0.55 97 1012.7
20260906140957 38 204 0.0 0.0 0.00 0.57 0.55 97 1012.6
20260906140455 38 204 0.0 0.0 0.00 0.57 0.55 97 1012.5
20260906135956 38 204 0.0 0.0 0.00 0.57 0.55 97 1012.5
20260906135457 38 204 0.0 0.0 0.02 0.57 0.55 97 1012.5
20260906134958 38 204 0.0 0.0 0.02 0.57 0.55 97 1012.5
20260906134459 38 204 0.0 0.0 0.02 0.57 0.55 97 1012.5
20260906133957 38 204 0.0 0.0 0.02 0.57 0.55 97 1012.5
20260906133458 38 204 0.0 0.0 0.02 0.57 0.55 97 1012.4
20260906132959 38 204 0.0 0.0 0.02 0.57 0.55 97 1012.5
20260906132500 38 204 0.0 0.0 0.02 0.57 0.55 97 1012.4
20260906132001 38 204 0.0 0.0 0.02 0.57 0.55 97 1012.4
20260906131459 38 204 0.0 0.0 0.02 0.57 0.55 97 1012.4
20260906131000 38 276 0.0 0.0 0.02 0.57 0.55 97 1012.4
20260906130501 38 276 0.0 0.0 0.02 0.57 0.55 97 1012.4
20260906130001 38 283 1.0 0.0 0.02 0.57 0.55 97 1012.4
20260906125502 38 321 1.0 2.0 0.09 0.57 0.55 97 1012.4
20260906125001 39 273 0.0 0.0 0.09 0.57 0.55 97 1012.4
20260906124502 39 273 0.0 0.0 0.09 0.57 0.55 97 1012.2
20260906124002 39 273 0.0 0.0 0.09 0.57 0.55 97 1012.5
20260906123503 39 273 0.0 0.0 0.09 0.57 0.55 97 1012.6
20260906123004 39 273 0.0 0.0 0.09 0.57 0.55 97 1012.6
20260906122502 39 273 0.0 0.0 0.09 0.57 0.55 97 1012.7
20260906122003 39 273 0.0 0.0 0.09 0.57 0.54 97 1012.7
20260906121504 39 264 0.0 0.0 0.09 0.57 0.54 97 1012.8
20260906121005 39 264 0.0 0.0 0.09 0.57 0.54 97 1012.8
20260906120506 39 264 0.0 0.0 0.09 0.57 0.53 97 1012.8
20260906120004 39 264 0.0 0.0 0.09 0.57 0.53 97 1013.0
20260906115505 39 264 0.0 0.0 0.17 0.57 0.53 97 1013.0
20260906115006 38 264 0.0 0.0 0.17 0.57 0.52 97 1013.0
20260906114507 38 264 0.0 0.0 0.17 0.57 0.52 96 1013.1
20260906114008 38 264 0.0 0.0 0.17 0.57 0.51 96 1013.1
20260906113506 38 264 0.0 0.0 0.17 0.57 0.51 96 1013.1
20260906113007 38 264 0.0 0.0 0.17 0.57 0.50 96 1013.2
20260906112508 39 264 0.0 0.0 0.17 0.57 0.49 96 1013.3
20260906112009 39 264 0.0 0.0 0.17 0.57 0.48 96 1013.3
20260906111510 39 264 0.0 0.0 0.17 0.57 0.47 96 1013.3
20260906111008 39 264 0.0 0.0 0.17 0.57 0.46 96 1013.4
20260906110509 39 259 0.0 0.0 0.17 0.57 0.45 96 1013.5
20260906110010 39 259 0.0 0.0 0.17 0.57 0.44 96 1013.5
20260906105511 39 259 0.0 0.0 0.15 0.57 0.43 96 1013.5
20260906105012 39 259 0.0 0.0 0.15 0.57 0.42 96 1013.5
20260906104510 39 259 0.0 0.0 0.15 0.57 0.40 96 1013.7
20260906104011 40 231 0.0 0.0 0.15 0.57 0.39 96 1013.7
20260906103512 40 231 0.0 0.0 0.15 0.57 0.38 96 1013.7
20260906103012 40 231 0.0 0.0 0.15 0.57 0.36 97 1013.7
20260906102513 40 231 0.0 0.0 0.15 0.57 0.35 97 1013.7
20260906102012 40 298 0.0 2.0 0.15 0.57 0.33 97 1013.7
20260906101512 40 212 0.0 0.0 0.15 0.57 0.31 97 1013.8
20260906101014 40 249 0.0 2.0 0.15 0.57 0.29 97 1013.8
20260906100514 40 150 1.0 1.0 0.15 0.57 0.29 97 1013.8
20260906100015 40 222 0.0 0.0 0.15 0.57 0.28 97 1013.8
20260906095513 40 222 0.0 0.0 0.11 0.57 0.27 97 1013.7
20260906095014 40 222 0.0 0.0 0.11 0.57 0.25 97 1013.7
20260906094515 40 222 0.0 0.0 0.11 0.57 0.25 97 1013.7
20260906094016 40 222 0.0 0.0 0.11 0.57 0.24 97 1013.8
20260906093517 40 222 0.0 0.0 0.11 0.57 0.23 97 1013.9
20260906093015 41 222 0.0 0.0 0.11 0.57 0.22 97 1013.8
20260906092516 41 222 0.0 0.0 0.11 0.57 0.21 97 1013.9
20260906092017 41 208 0.0 1.0 0.11 0.57 0.19 97 1013.9
20260906091518 41 177 0.0 0.0 0.11 0.57 0.17 97 1013.9
20260906091018 41 321 0.0 0.0 0.11 0.57 0.15 97 1013.8
20260906090517 41 321 0.0 0.0 0.11 0.57 0.14 97 1013.8
20260906090018 41 321 0.0 0.0 0.11 0.57 0.12 97 1013.8
20260906085519 41 321 0.0 0.0 0.01 0.57 0.11 97 1013.7
20260906085020 41 321 0.0 0.0 0.01 0.57 0.11 97 1013.5
20260906084521 41 321 0.0 0.0 0.01 0.57 0.10 97 1013.5
20260906084019 41 321 0.0 0.0 0.01 0.57 0.08 97 1013.5
20260906083520 41 321 0.0 0.0 0.01 0.57 0.06 97 1013.5
20260906083021 41 321 0.0 0.0 0.01 0.57 0.05 97 1013.5
20260906082522 41 321 0.0 0.0 0.01 0.57 0.04 97 1013.5
20260906082023 40 181 0.0 0.0 0.01 0.57 0.02 97 1013.5
20260906081521 40 181 0.0 0.0 0.01 0.57 0.01 97 1013.4
20260906081022 40 181 0.0 0.0 0.01 0.57 0.01 97 1013.5
20260906080523 40 181 0.0 0.0 0.01 0.57 0.01 97 1013.4
20260906080024 40 181 0.0 0.0 0.01 0.57 0.01 97 1013.5
20260906075525 40 181 0.0 0.0 0.01 0.57 0.01 97 1013.5
20260906075023 40 181 0.0 0.0 0.01 0.57 0.01 97 1013.7
20260906074524 40 169 1.0 1.0 0.01 0.57 0.01 97 1013.7
20260906074025 40 198 1.0 0.0 0.01 0.57 0.01 96 1013.8
20260906073526 40 203 0.0 2.0 0.01 0.57 0.01 96 1013.8
20260906073027 40 200 0.0 0.0 0.01 0.57 0.01 96 1013.8
20260906072525 40 200 0.0 0.0 0.01 0.57 0.01 96 1013.9
20260906072027 40 200 0.0 0.0 0.01 0.57 0.00 96 1014.0
20260906071528 40 200 0.0 0.0 0.01 0.57 0.00 96 1014.1
20260906071029 40 200 0.0 0.0 0.01 0.57 0.00 96 1014.1
20260906070530 40 200 1.0 0.0 0.01 0.57 0.00 96 1014.1
20260906070028 40 101 0.0 0.0 0.01 0.57 0.00 96 1014.1
20260906065529 40 211 0.0 0.0 0.15 0.45 0.57 96 1014.3
20260906065030 41 211 0.0 0.0 0.15 0.45 0.57 96 1014.3
20260906064531 41 179 2.0 0.0 0.15 0.45 0.57 96 1014.1
20260906064032 40 190 1.0 2.0 0.15 0.45 0.57 96 1014.3
20260906063530 41 233 1.0 0.0 0.15 0.45 0.57 96 1014.3
20260906063031 41 215 0.0 2.0 0.15 0.45 0.57 96 1014.3
20260906062532 41 226 2.0 1.0 0.15 0.45 0.57 96 1014.3
20260906062033 40 180 0.0 0.0 0.15 0.45 0.57 96 1014.3
20260906061534 40 180 0.0 0.0 0.15 0.45 0.57 96 1014.3
20260906061032 41 180 0.0 0.0 0.15 0.45 0.57 96 1014.3
20260906060534 40 153 0.0 0.0 0.15 0.45 0.56 96 1014.4
20260906060035 40 153 0.0 0.0 0.15 0.45 0.56 96 1014.5
20260906055536 40 89 0.0 0.0 0.24 0.45 0.56 96 1014.5
20260906055037 40 89 0.0 0.0 0.24 0.45 0.56 96 1014.7
20260906054535 40 89 0.0 0.0 0.24 0.45 0.55 96 1015.0
20260906054036 40 89 0.0 0.0 0.24 0.45 0.53 96 1015.1
20260906053537 40 89 0.0 0.0 0.24 0.45 0.52 96 1015.2
20260906053038 41 89 0.0 0.0 0.24 0.45 0.50 95 1015.3
20260906052539 41 89 0.0 0.0 0.24 0.45 0.50 95 1015.3
20260906052037 41 115 0.0 0.0 0.24 0.45 0.50 95 1015.3
20260906051538 41 158 0.0 0.0 0.24 0.45 0.48 95 1015.4
20260906051039 41 158 0.0 0.0 0.24 0.45 0.47 95 1015.7
20260906050540 41 158 0.0 0.0 0.24 0.45 0.45 94 1015.9
20260906050041 41 158 0.0 0.0 0.24 0.45 0.42 94 1016.0
20260906045539 41 158 0.0 0.0 0.11 0.45 0.39 93 1016.1
20260906045040 42 149 0.0 1.0 0.11 0.45 0.37 93 1016.1
20260906044541 42 173 3.0 2.0 0.11 0.45 0.34 94 1016.3
20260906044043 42 13 3.0 0.0 0.11 0.45 0.32 95 1016.4
20260906043544 42 267 2.0 4.0 0.11 0.45 0.30 95 1016.4
20260906043042 42 260 0.0 0.0 0.11 0.45 0.29 95 1016.4
20260906042543 42 260 0.0 0.0 0.11 0.45 0.26 95 1016.1
20260906042044 43 260 0.0 0.0 0.11 0.45 0.24 95 1016.3
20260906041545 43 260 0.0 0.0 0.11 0.45 0.23 95 1016.0
20260906041046 43 260 0.0 0.0 0.11 0.45 0.21 95 1016.0
20260906040544 43 260 0.0 0.0 0.11 0.45 0.19 95 1016.0
20260906040045 43 260 0.0 0.0 0.11 0.45 0.18 95 1015.9
20260906035546 43 260 0.0 0.0 0.03 0.45 0.16 95 1015.9
20260906035139 43 260 0.0 0.0 0.03 0.45 0.14 95 1015.8
20260906035047 43 260 0.0 0.0 0.03 0.45 0.14 95 1015.8
20260906034548 43 260 0.0 0.0 0.03 0.45 0.14 95 1015.7
20260906034046 43 342 1.0 1.0 0.03 0.45 0.14 95 1015.6
20260906033547 43 222 0.0 0.0 0.03 0.45 0.14 94 1015.4
20260906033048 43 222 0.0 0.0 0.03 0.45 0.13 95 1015.2
20260906032549 43 222 0.0 0.0 0.03 0.45 0.11 95 1015.3
20260906032050 43 222 0.0 0.0 0.03 0.45 0.10 92 1015.6
20260906031548 43 222 0.0 0.0 0.03 0.45 0.10 91 1015.6
20260906031049 43 222 0.0 0.0 0.03 0.45 0.08 91 1015.4
20260906030550 43 222 0.0 0.0 0.03 0.45 0.08 90 1015.6
20260906030051 43 222 0.0 0.0 0.03 0.45 0.07 90 1015.3
20260906025552 43 318 0.0 0.0 0.01 0.45 0.06 90 1015.3
20260906025050 43 276 0.0 0.0 0.01 0.45 0.06 90 1015.2
20260906024551 44 211 0.0 0.0 0.01 0.45 0.05 89 1015.3
20260906024052 44 283 2.0 0.0 0.01 0.45 0.05 89 1015.3
20260906023553 44 278 1.0 0.0 0.01 0.45 0.04 88 1015.3
20260906023054 44 273 0.0 0.0 0.01 0.45 0.04 88 1015.2
20260906022553 44 280 1.0 1.0 0.01 0.45 0.04 89 1015.2
20260906022054 44 218 0.0 0.0 0.01 0.45 0.04 86 1015.3
20260906021555 44 83 3.0 0.0 0.01 0.45 0.04 86 1015.2
20260906021056 45 158 0.0 0.0 0.01 0.45 0.04 83 1015.2
20260906020557 45 158 0.0 0.0 0.01 0.45 0.04 81 1015.3
20260906020055 45 231 0.0 1.0 0.01 0.45 0.03 80 1015.4
20260906015556 45 295 2.0 2.0 0.00 0.45 0.03 76 1015.2
20260906015057 46 122 1.0 1.0 0.00 0.45 0.02 73 1015.4
20260906014558 46 73 0.0 2.0 0.00 0.45 0.02 75 1015.2
20260906014059 47 56 2.0 0.0 0.00 0.45 0.02 73 1015.2
20260906013558 47 238 0.0 0.0 0.00 0.45 0.02 72 1015.1
20260906013059 48 10 0.0 2.0 0.00 0.45 0.02 72 1015.0
20260906012600 48 118 2.0 1.0 0.00 0.45 0.02 70 1015.1
20260906012101 49 148 2.0 2.0 0.00 0.45 0.02 69 1015.6
20260906011602 50 160 2.0 1.0 0.00 0.45 0.02 72 1015.3
20260906011100 50 350 0.0 0.0 0.00 0.45 0.02 70 1015.3
20260906010601 50 350 0.0 0.0 0.00 0.45 0.02 70 1015.0
20260906005604 51 326 0.0 0.0 0.00 0.45 0.02 70 1014.8
20260906005105 51 326 0.0 0.0 0.00 0.45 0.02 70 1015.0
20260906004603 51 326 0.0 1.0 0.00 0.45 0.02 69 1014.8
20260906004104 51 1 1.0 0.0 0.00 0.45 0.02 69 1015.1
20260906003605 51 315 0.0 1.0 0.00 0.45 0.02 69 1014.8
20260906003106 51 309 0.0 0.0 0.00 0.45 0.02 68 1015.0
20260906002607 52 312 0.0 3.0 0.00 0.45 0.02 68 1014.8
20260906002106 52 318 3.0 2.0 0.00 0.45 0.02 66 1014.8
20260906001607 52 339 1.0 5.0 0.00 0.45 0.02 67 1015.0
20260906001108 52 295 2.0 2.0 0.00 0.45 0.02 66 1014.8
20260906000609 53 266 1.0 1.0 0.00 0.45 0.02 66 1014.8
20260906000110 52 336 3.0 4.0 0.00 0.45 0.02 65 1014.8
20260905235607 52 219 4.0 2.0 0.00 0.45 0.02 66 1014.7
20260905235108 52 281 0.0 1.0 0.00 0.45 0.02 65 1015.1
20260905234609 52 7 1.0 1.0 0.00 0.45 0.02 65 1014.7
20260905234111 52 248 2.0 0.0 0.00 0.45 0.02 67 1014.8
20260905233612 52 283 0.0 0.0 0.00 0.45 0.02 67 1014.8
20260905233110 52 277 0.0 0.0 0.00 0.45 0.02 65 1014.8
20260905232611 52 277 0.0 0.0 0.00 0.45 0.02 67 1014.8
20260905232112 52 267 0.0 0.0 0.00 0.45 0.02 67 1015.0
20260905231613 52 298 2.0 2.0 0.00 0.45 0.02 67 1015.0
20260905231114 52 267 0.0 0.0 0.00 0.45 0.02 66 1015.1
20260905230612 52 267 0.0 0.0 0.00 0.45 0.02 68 1015.0
20260905230113 52 267 0.0 0.0 0.00 0.45 0.02 66 1015.0
20260905225614 52 283 0.0 0.0 0.00 0.45 0.02 67 1015.1
20260905225115 51 283 0.0 0.0 0.00 0.45 0.02 65 1015.4
20260905224617 51 293 0.0 0.0 0.00 0.45 0.02 66 1015.1
20260905224115 51 278 0.0 0.0 0.00 0.45 0.02 67 1015.3
20260905223616 51 278 0.0 0.0 0.00 0.45 0.02 66 1015.2
20260905223117 51 278 0.0 0.0 0.00 0.45 0.02 66 1015.3
20260905222618 51 278 0.0 0.0 0.00 0.45 0.02 66 1015.3
20260905222119 51 278 1.0 0.0 0.00 0.45 0.02 68 1015.3
20260905221617 51 284 0.0 0.0 0.00 0.45 0.02 68 1015.3
20260905221119 51 274 2.0 1.0 0.00 0.45 0.02 68 1015.3
20260905220620 51 284 2.0 2.0 0.00 0.45 0.02 68 1015.3
20260905220121 51 311 2.0 2.0 0.00 0.45 0.02 67 1015.3
20260905215622 52 333 0.0 1.0 0.01 0.45 0.02 67 1015.3
20260905215120 52 266 4.0 2.0 0.01 0.45 0.02 65 1015.3
20260905214621 52 297 2.0 2.0 0.01 0.45 0.02 66 1015.2
20260905214122 52 312 3.0 3.0 0.01 0.45 0.02 68 1015.4
20260905213623 52 314 1.0 4.0 0.01 0.45 0.02 69 1015.2
20260905213124 51 284 4.0 5.0 0.01 0.45 0.02 66 1015.3
20260905212622 50 56 3.0 3.0 0.01 0.45 0.02 66 1015.3
20260905212124 50 28 1.0 2.0 0.01 0.45 0.02 66 1015.3
20260905211624 51 311 1.0 0.0 0.01 0.45 0.02 66 1015.3
20260905211126 51 66 2.0 3.0 0.01 0.45 0.02 70 1015.4
20260905210627 50 49 0.0 0.0 0.01 0.45 0.02 73 1015.4
20260905210125 50 287 0.0 0.0 0.01 0.45 0.02 72 1015.4
20260905205626 50 226 0.0 0.0 0.00 0.45 0.02 73 1015.4
20260905205127 50 217 0.0 1.0 0.00 0.45 0.01 70 1015.6
20260905204628 51 211 1.0 1.0 0.00 0.45 0.01 67 1015.6
20260905204129 51 203 2.0 0.0 0.00 0.45 0.01 66 1015.7
20260905203627 51 263 0.0 1.0 0.00 0.45 0.01 67 1015.3
20260905203128 51 281 0.0 1.0 0.00 0.45 0.01 66 1015.3
20260905202629 51 205 1.0 0.0 0.00 0.45 0.01 66 1015.3
20260905202130 50 226 2.0 1.0 0.00 0.45 0.01 69 1015.6
20260905201631 50 180 2.0 3.0 0.00 0.45 0.01 68 1015.4
20260905201129 49 107 1.0 1.0 0.00 0.45 0.01 69 1015.6
20260905200631 49 194 1.0 0.0 0.00 0.45 0.01 69 1015.3
20260905200132 50 129 1.0 2.0 0.00 0.45 0.01 68 1015.3
20260905195633 50 236 2.0 2.0 0.00 0.45 0.01 66 1015.4
20260905195134 50 183 3.0 1.0 0.00 0.45 0.01 65 1015.7
20260905194632 51 197 2.0 3.0 0.00 0.45 0.01 64 1015.4
20260905194133 50 218 4.0 3.0 0.00 0.45 0.01 65 1015.4
20260905193634 50 179 5.0 3.0 0.00 0.45 0.01 65 1015.4
20260905193135 50 75 3.0 4.0 0.00 0.45 0.01 67 1015.6
20260905192636 50 105 5.0 4.0 0.00 0.45 0.01 65 1015.3
20260905192135 50 124 2.0 6.0 0.00 0.45 0.01 66 1015.6